This is the latest recevied weather packets stored in our database for station/object N8QQQ. If no packets are shown the sender has not sent any weather packets the latest 10 day(s).
| Time | Temp. | Humidity | Pressure | Rain* | Wind** | Luminosity | Snow |
|---|---|---|---|---|---|---|---|
| 1778097472 | 3.33° C | 58% | 1011.9 hPa | 0 mm | - | 165 W/m² | - |
| 1778097169 | 2.78° C | 62% | 1011.9 hPa | 0 mm | - | 130 W/m² | - |
| 1778096866 | 3.33° C | 59% | 1012 hPa | 0 mm | - | 122 W/m² | - |
| 1778096562 | 3.89° C | 55% | 1011.9 hPa | 0 mm | - | 176 W/m² | - |
| 1778096260 | 3.89° C | 55% | 1011.7 hPa | 0 mm | - | 148 W/m² | - |
| 1778095957 | 3.89° C | 54% | 1011.7 hPa | 0 mm | - | 160 W/m² | - |
| 1778095653 | 3.89° C | 54% | 1011.8 hPa | 0 mm | - | 196 W/m² | - |
| 1778095350 | 3.89° C | 53% | 1012 hPa | 0 mm | - | 182 W/m² | - |
| 1778095047 | 3.33° C | 56% | 1011.8 hPa | 0 mm | - | 147 W/m² | - |
| 1778094743 | 3.33° C | 56% | 1011.9 hPa | 0 mm | - | 137 W/m² | - |
| 1778094440 | 3.33° C | 57% | 1011.9 hPa | 0 mm | - | 115 W/m² | - |
| 1778094137 | 3.33° C | 57% | 1011.8 hPa | 0 mm | - | 91 W/m² | - |
| 1778093834 | 3.33° C | 57% | 1011.8 hPa | 0 mm | - | 84 W/m² | - |
| 1778093530 | 3.89° C | 55% | 1011.8 hPa | 0 mm | - | 83 W/m² | - |
| 1778093228 | 3.89° C | 54% | 1011.8 hPa | 0 mm | - | 89 W/m² | - |
| 1778092925 | 3.89° C | 54% | 1011.7 hPa | 0 mm | - | 139 W/m² | - |
| 1778092621 | 3.89° C | 55% | 1011.6 hPa | 0 mm | - | 179 W/m² | - |
| 1778092317 | 3.33° C | 58% | 1011.7 hPa | 0 mm | - | 175 W/m² | - |
| 1778092015 | 3.89° C | 58% | 1011.7 hPa | 0 mm | - | 121 W/m² | - |
| 1778091711 | 3.89° C | 53% | 1011.8 hPa | 0 mm | - | 139 W/m² | - |
| 1778091404 | 3.89° C | 52% | 1011.8 hPa | 0 mm | - | 142 W/m² | - |
| 1778091101 | 4.44° C | 51% | 1011.6 hPa | 0 mm | - | 176 W/m² | - |
| 1778090798 | 3.89° C | 53% | 1011.6 hPa | 0 mm | - | 229 W/m² | - |
| 1778090494 | 3.89° C | 55% | 1011.8 hPa | 0 mm | - | 206 W/m² | - |
| 1778090191 | 3.33° C | 56% | 1011.8 hPa | 0 mm | - | 224 W/m² | - |
* Rain latest hour (hover to see other rain measurements)
** Current wind speed in m/s (hover to see current wind gust speed)